Location: Great Malvern
(52.1167°N, 2.3167°W)
Time: 11:40:14
(UTC+00:00)

IGS 5A - Pass Details

Date: 18 September 2020
Orbit: 583 x 588 km, 97.6° (Epoch: 09 October)

Event Time Altitude Azimuth Distance (km) Brightness Sun altitude
Exits shadow 21:13:36 65° 308° (NW) 650 3.8 -25.7°
Drops below altitude 10° 21:17:17 10° 343° (NNW) 1,920 6.8 -26.1°
Sets 21:19:28 0° 345° (NNW) 2,824 7.8 -26.4°
